| time (UTC) | temp F | wind direction | speed MPH | gust MPH | rain 1hr in | rain 24hr in | rain mn in | humidity % | barometer mb |
| 20260506233145 | 71 | 16 | 4.0 | 18.0 | 0.00 | 0.00 | 0.00 | 22 | 1015.2 |
| 20260506232144 | 73 | 29 | 9.0 | 17.0 | 0.00 | 0.00 | 0.00 | 22 | 1015.1 |
| 20260506231144 | 72 | 357 | 10.0 | 16.0 | 0.00 | 0.00 | 0.00 | 24 | 1015.0 |
| 20260506230144 | 72 | 25 | 6.0 | 20.0 | 0.00 | 0.00 | 0.00 | 23 | 1015.1 |
| 20260506225144 | 73 | 25 | 3.0 | 10.0 | 0.00 | 0.00 | 0.00 | 24 | 1015.1 |
| 20260506224144 | 73 | 347 | 11.0 | 16.0 | 0.00 | 0.00 | 0.00 | 24 | 1015.2 |
| 20260506223144 | 73 | 16 | 12.0 | 23.0 | 0.00 | 0.00 | 0.00 | 23 | 1015.3 |
| 20260506222144 | 73 | 45 | 13.0 | 19.0 | 0.00 | 0.00 | 0.00 | 24 | 1015.2 |
| 20260506221144 | 73 | 0 | 0.0 | 7.0 | 0.00 | 0.00 | 0.00 | 26 | 1015.5 |
| 20260506220144 | 71 | 34 | 5.0 | 13.0 | 0.00 | 0.00 | 0.00 | 27 | 1015.7 |
| 20260506215144 | 72 | 28 | 10.0 | 17.0 | 0.00 | 0.00 | 0.00 | 24 | 1015.8 |
| 20260506214144 | 70 | 353 | 1.0 | 10.0 | 0.00 | 0.00 | 0.00 | 29 | 1015.9 |
| 20260506213145 | 69 | 54 | 5.0 | 16.0 | 0.00 | 0.00 | 0.00 | 30 | 1015.9 |
| 20260506212144 | 69 | 50 | 13.0 | 17.0 | 0.00 | 0.00 | 0.00 | 28 | 1015.9 |
| 20260506211144 | 72 | 79 | 7.0 | 14.0 | 0.00 | 0.00 | 0.00 | 27 | 1015.9 |
| 20260506210144 | 71 | 27 | 12.0 | 20.0 | 0.00 | 0.00 | 0.00 | 29 | 1016.1 |
| 20260506205144 | 71 | 32 | 10.0 | 16.0 | 0.00 | 0.00 | 0.00 | 28 | 1016.0 |
| 20260506204145 | 70 | 40 | 16.0 | 22.0 | 0.00 | 0.00 | 0.00 | 29 | 1016.0 |
| 20260506203144 | 69 | 154 | 5.0 | 15.0 | 0.00 | 0.00 | 0.00 | 30 | 1016.3 |
| 20260506202144 | 68 | 173 | 7.0 | 14.0 | 0.00 | 0.00 | 0.00 | 32 | 1016.4 |
| 20260506201144 | 67 | 59 | 1.0 | 11.0 | 0.00 | 0.00 | 0.00 | 34 | 1016.4 |
| 20260506200144 | 67 | 153 | 8.0 | 14.0 | 0.00 | 0.00 | 0.00 | 32 | 1016.5 |
| 20260506195145 | 65 | 220 | 1.0 | 6.0 | 0.00 | 0.00 | 0.00 | 33 | 1016.7 |
| 20260506194146 | 65 | 177 | 4.0 | 11.0 | 0.00 | 0.00 | 0.00 | 34 | 1016.6 |
| 20260506193144 | 66 | 147 | 6.0 | 15.0 | 0.00 | 0.00 | 0.00 | 32 | 1016.6 |
| 20260506192145 | 65 | 160 | 12.0 | 18.0 | 0.00 | 0.00 | 0.00 | 35 | 1016.6 |
| 20260506191144 | 65 | 166 | 9.0 | 17.0 | 0.00 | 0.00 | 0.00 | 34 | 1016.5 |
| 20260506190144 | 66 | 0 | 0.0 | 12.0 | 0.00 | 0.00 | 0.00 | 34 | 1016.6 |
| 20260506185144 | 67 | 180 | 4.0 | 10.0 | 0.00 | 0.00 | 0.00 | 34 | 1016.6 |
| 20260506184144 | 66 | 0 | 0.0 | 7.0 | 0.00 | 0.00 | 0.00 | 34 | 1016.8 |
| 20260506183145 | 65 | 176 | 1.0 | 16.0 | 0.00 | 0.00 | 0.00 | 32 | 1016.9 |
| 20260506182144 | 68 | 114 | 11.0 | 16.0 | 0.00 | 0.00 | 0.00 | 32 | 1016.8 |
| 20260506165146 | 63 | 350 | 1.0 | 6.0 | 0.00 | 0.00 | 0.00 | 39 | 1016.1 |
| 20260506164144 | 65 | 34 | 5.0 | 14.0 | 0.00 | 0.00 | 0.00 | 38 | 1016.1 |
| 20260506163145 | 64 | 339 | 9.0 | 19.0 | 0.00 | 0.00 | 0.00 | 38 | 1016.0 |
| 20260506162145 | 63 | 28 | 5.0 | 17.0 | 0.00 | 0.00 | 0.00 | 40 | 1016.1 |
| 20260506161144 | 63 | 352 | 6.0 | 16.0 | 0.00 | 0.00 | 0.00 | 41 | 1016.2 |
| 20260506155145 | 61 | 348 | 2.0 | 9.0 | 0.00 | 0.00 | 0.00 | 45 | 1016.3 |
| 20260506154145 | 60 | 0 | 0.0 | 7.0 | 0.00 | 0.00 | 0.00 | 44 | 1016.5 |
| 20260506152145 | 59 | 0 | 0.0 | 4.0 | 0.00 | 0.00 | 0.00 | 48 | 1016.3 |
| 20260506151146 | 59 | 58 | 2.0 | 6.0 | 0.00 | 0.00 | 0.00 | 45 | 1016.4 |
| 20260506145145 | 58 | 106 | 1.0 | 6.0 | 0.00 | 0.00 | 0.00 | 42 | 1016.3 |
| 20260506144145 | 57 | 113 | 1.0 | 6.0 | 0.00 | 0.00 | 0.00 | 43 | 1016.1 |
| 20260506143145 | 56 | 0 | 0.0 | 3.0 | 0.00 | 0.00 | 0.00 | 45 | 1016.1 |
| 20260506142145 | 56 | 0 | 0.0 | 3.0 | 0.00 | 0.00 | 0.00 | 44 | 1015.9 |
| 20260506141145 | 55 | 0 | 0.0 | 1.0 | 0.00 | 0.00 | 0.00 | 46 | 1014.9 |
| 20260506140145 | 54 | 0 | 0.0 | 0.0 | 0.00 | 0.00 | 0.00 | 46 | 1014.8 |
| 20260506135145 | 53 | 0 | 0.0 | 0.0 | 0.00 | 0.00 | 0.00 | 48 | 1014.8 |
| 20260506134145 | 52 | 0 | 0.0 | 0.0 | 0.00 | 0.00 | 0.00 | 48 | 1014.5 |
| 20260506133145 | 51 | 0 | 0.0 | 0.0 | 0.00 | 0.00 | 0.00 | 47 | 1014.3 |
| 20260506132145 | 50 | 0 | 0.0 | 0.0 | 0.00 | 0.00 | 0.00 | 48 | 1014.2 |
| 20260506131146 | 50 | 0 | 0.0 | 0.0 | 0.00 | 0.00 | 0.00 | 47 | 1014.1 |
| 20260506130145 | 50 | 0 | 0.0 | 0.0 | 0.00 | 0.00 | 0.00 | 49 | 1014.0 |
| 20260506124145 | 48 | 0 | 0.0 | 0.0 | 0.00 | 0.00 | 0.00 | 50 | 1014.0 |
| 20260506123145 | 48 | 0 | 0.0 | 0.0 | 0.00 | 0.00 | 0.00 | 50 | 1013.7 |
| 20260506122145 | 49 | 0 | 0.0 | 0.0 | 0.00 | 0.00 | 0.00 | 48 | 1013.7 |
| 20260506121145 | 48 | 0 | 0.0 | 0.0 | 0.00 | 0.00 | 0.00 | 48 | 1013.5 |
| 20260506120145 | 48 | 0 | 0.0 | 0.0 | 0.00 | 0.00 | 0.00 | 49 | 1013.4 |
| 20260506115145 | 48 | 0 | 0.0 | 0.0 | 0.00 | 0.00 | 0.00 | 49 | 1013.3 |
| 20260506114145 | 48 | 0 | 0.0 | 1.0 | 0.00 | 0.00 | 0.00 | 48 | 1013.3 |
| 20260506113145 | 48 | 0 | 0.0 | 0.0 | 0.00 | 0.00 | 0.00 | 47 | 1013.2 |
| 20260506112145 | 48 | 0 | 0.0 | 0.0 | 0.00 | 0.00 | 0.00 | 48 | 1013.2 |
| 20260506111147 | 48 | 0 | 0.0 | 5.0 | 0.00 | 0.00 | 0.00 | 49 | 1013.1 |
| 20260506110145 | 47 | 179 | 2.0 | 5.0 | 0.00 | 0.00 | 0.00 | 50 | 1013.1 |
| 20260506105145 | 48 | 178 | 4.0 | 6.0 | 0.00 | 0.00 | 0.00 | 49 | 1012.9 |
| 20260506103145 | 49 | 0 | 0.0 | 5.0 | 0.00 | 0.00 | 0.00 | 46 | 1012.8 |
| 20260506102145 | 49 | 0 | 0.0 | 0.0 | 0.00 | 0.00 | 0.00 | 45 | 1012.9 |
| 20260506100145 | 49 | 229 | 1.0 | 3.0 | 0.00 | 0.00 | 0.00 | 45 | 1012.6 |
| 20260506095145 | 49 | 0 | 0.0 | 4.0 | 0.00 | 0.00 | 0.00 | 45 | 1012.7 |
| 20260506093145 | 49 | 0 | 0.0 | 5.0 | 0.00 | 0.00 | 0.00 | 45 | 1012.6 |
| 20260506092145 | 49 | 174 | 2.0 | 6.0 | 0.00 | 0.00 | 0.00 | 44 | 1012.6 |
| 20260506090145 | 50 | 166 | 4.0 | 6.0 | 0.00 | 0.00 | 0.00 | 43 | 1012.6 |
| 20260506085145 | 50 | 159 | 3.0 | 6.0 | 0.00 | 0.00 | 0.00 | 43 | 1012.6 |
| 20260506083145 | 50 | 0 | 0.0 | 6.0 | 0.00 | 0.00 | 0.00 | 42 | 1012.5 |
| 20260506082145 | 51 | 152 | 2.0 | 5.0 | 0.00 | 0.00 | 0.00 | 41 | 1012.6 |
| 20260506080146 | 51 | 0 | 0.0 | 3.0 | 0.00 | 0.00 | 0.00 | 40 | 1012.4 |
| 20260506073146 | 54 | 0 | 0.0 | 16.0 | 0.00 | 0.00 | 0.00 | 37 | 1012.5 |
| 20260506072146 | 54 | 232 | 5.0 | 20.0 | 0.00 | 0.00 | 0.00 | 37 | 1012.3 |
| 20260506071147 | 54 | 245 | 14.0 | 21.0 | 0.00 | 0.00 | 0.00 | 37 | 1012.1 |
| 20260506070146 | 54 | 231 | 16.0 | 24.0 | 0.00 | 0.00 | 0.00 | 37 | 1012.1 |
| 20260506062146 | 53 | 222 | 8.0 | 14.0 | 0.00 | 0.00 | 0.00 | 38 | 1012.3 |
| 20260506061147 | 53 | 0 | 0.0 | 5.0 | 0.00 | 0.00 | 0.00 | 37 | 1012.5 |
| 20260506060146 | 53 | 0 | 0.0 | 5.0 | 0.00 | 0.00 | 0.00 | 37 | 1012.3 |
| 20260506051148 | 53 | 0 | 0.0 | 0.0 | 0.00 | 0.00 | 0.00 | 34 | 1012.1 |
| 20260506050146 | 53 | 0 | 0.0 | 0.0 | 0.00 | 0.00 | 0.00 | 34 | 1012.2 |
| 20260506044147 | 53 | 0 | 0.0 | 2.0 | 0.00 | 0.00 | 0.00 | 34 | 1012.0 |
| 20260506043146 | 53 | 0 | 0.0 | 2.0 | 0.00 | 0.00 | 0.00 | 35 | 1011.8 |
| 20260506042146 | 53 | 0 | 0.0 | 2.0 | 0.00 | 0.00 | 0.00 | 35 | 1011.7 |
| 20260506041147 | 54 | 0 | 0.0 | 2.0 | 0.00 | 0.00 | 0.00 | 34 | 1011.5 |
| 20260506040146 | 54 | 0 | 0.0 | 7.0 | 0.00 | 0.00 | 0.00 | 33 | 1011.2 |
| 20260506035146 | 54 | 0 | 0.0 | 8.0 | 0.00 | 0.00 | 0.00 | 33 | 1011.0 |
| 20260506034147 | 54 | 0 | 0.0 | 5.0 | 0.00 | 0.00 | 0.00 | 33 | 1010.8 |
| 20260506033147 | 54 | 183 | 1.0 | 6.0 | 0.00 | 0.00 | 0.00 | 33 | 1010.7 |
| 20260506032146 | 54 | 190 | 2.0 | 7.0 | 0.00 | 0.00 | 0.00 | 33 | 1010.6 |
| 20260506031148 | 55 | 172 | 1.0 | 5.0 | 0.00 | 0.00 | 0.00 | 32 | 1010.3 |
| 20260506030147 | 55 | 0 | 0.0 | 1.0 | 0.00 | 0.00 | 0.00 | 32 | 1010.1 |
| 20260506025146 | 56 | 0 | 0.0 | 1.0 | 0.00 | 0.00 | 0.00 | 32 | 1009.9 |
| 20260506024148 | 56 | 0 | 0.0 | 0.0 | 0.00 | 0.00 | 0.00 | 31 | 1009.9 |
| 20260506023146 | 56 | 221 | 1.0 | 8.0 | 0.00 | 0.00 | 0.00 | 31 | 1009.7 |
| 20260506022147 | 56 | 222 | 5.0 | 11.0 | 0.00 | 0.00 | 0.00 | 31 | 1009.4 |
| 20260506021147 | 57 | 0 | 0.0 | 14.0 | 0.00 | 0.00 | 0.00 | 31 | 1009.2 |
| 20260506020147 | 58 | 227 | 8.0 | 15.0 | 0.00 | 0.00 | 0.00 | 30 | 1009.0 |
| 20260506015146 | 58 | 234 | 5.0 | 10.0 | 0.00 | 0.00 | 0.00 | 30 | 1009.0 |
| 20260506014150 | 59 | 204 | 1.0 | 6.0 | 0.00 | 0.00 | 0.00 | 31 | 1008.9 |
| 20260506013146 | 60 | 169 | 2.0 | 13.0 | 0.00 | 0.00 | 0.00 | 30 | 1008.8 |
| 20260506012147 | 60 | 249 | 4.0 | 13.0 | 0.00 | 0.00 | 0.00 | 29 | 1008.7 |
| 20260506011147 | 60 | 0 | 0.0 | 10.0 | 0.00 | 0.00 | 0.00 | 30 | 1008.6 |
| 20260506010146 | 61 | 196 | 4.0 | 11.0 | 0.00 | 0.00 | 0.00 | 29 | 1008.6 |
| 20260506005146 | 60 | 212 | 3.0 | 14.0 | 0.00 | 0.00 | 0.00 | 30 | 1008.6 |
| 20260506004148 | 60 | 175 | 2.0 | 12.0 | 0.00 | 0.00 | 0.00 | 31 | 1008.5 |
| 20260506003147 | 60 | 185 | 6.0 | 21.0 | 0.00 | 0.00 | 0.00 | 31 | 1008.4 |
| 20260506002147 | 60 | 157 | 13.0 | 17.0 | 0.00 | 0.00 | 0.00 | 30 | 1008.4 |
| 20260506001147 | 61 | 163 | 6.0 | 16.0 | 0.00 | 0.00 | 0.00 | 30 | 1008.3 |
| 20260506000147 | 61 | 209 | 7.0 | 17.0 | 0.00 | 0.00 | 0.00 | 30 | 1008.3 |
| 20260505235148 | 60 | 214 | 3.0 | 18.0 | 0.00 | 0.00 | 0.00 | 30 | 1008.2 |
| 20260505234147 | 61 | 140 | 2.0 | 14.0 | 0.00 | 0.00 | 0.00 | 30 | 1008.2 |